TimeCST,TemperatureF,Dew PointF,Humidity,Sea Level PressureIn,VisibilityMPH,Wind Direction,Wind SpeedMPH,Gust SpeedMPH,PrecipitationIn,Events,Conditions,WindDirDegrees,DateUTC
12:56 AM,73.9,71.1,91,29.98,10.0,SW,6.9,-,N/A,,Clear,220,2012-11-06 06:56:00
1:44 AM,73.4,71.6,94,30.02,10.0,North,16.1,-,N/A,Thunderstorm,Thunderstorm,350,2012-11-06 07:44:00
1:56 AM,73.0,68.0,84,30.03,10.0,North,28.8,38.0,N/A,Thunderstorm,Thunderstorm,360,2012-11-06 07:56:00
2:03 AM,71.6,69.8,94,30.03,10.0,North,19.6,32.2,N/A,Thunderstorm,Thunderstorm,360,2012-11-06 08:03:00
2:14 AM,71.6,69.8,94,30.02,8.0,North,17.3,-,N/A,,Overcast,360,2012-11-06 08:14:00
2:38 AM,71.6,68.0,88,30.02,10.0,North,15.0,-,N/A,,Mostly Cloudy,10,2012-11-06 08:38:00
2:56 AM,72.0,69.1,91,30.02,10.0,NNE,13.8,-,N/A,,Unknown,20,2012-11-06 08:56:00
3:56 AM,72.0,62.1,71,30.04,10.0,NE,15.0,-,N/A,,Overcast,50,2012-11-06 09:56:00
4:56 AM,73.0,60.1,64,30.06,10.0,ENE,18.4,-,N/A,,Overcast,60,2012-11-06 10:56:00
5:56 AM,73.0,61.0,66,30.08,10.0,ENE,13.8,-,N/A,,Overcast,60,2012-11-06 11:56:00
6:56 AM,73.0,59.0,61,30.09,10.0,ENE,15.0,-,N/A,,Mostly Cloudy,70,2012-11-06 12:56:00
7:56 AM,71.1,62.1,73,30.12,10.0,NE,17.3,-,N/A,,Mostly Cloudy,40,2012-11-06 13:56:00
8:56 AM,73.9,62.1,66,30.13,10.0,NE,15.0,-,N/A,,Scattered Clouds,50,2012-11-06 14:56:00
9:56 AM,75.9,59.0,56,30.14,10.0,ENE,11.5,-,N/A,,Partly Cloudy,60,2012-11-06 15:56:00
10:56 AM,77.0,55.0,47,30.14,10.0,NE,11.5,-,N/A,,Clear,40,2012-11-06 16:56:00
11:56 AM,78.1,55.9,46,30.13,10.0,NNE,13.8,-,N/A,,Clear,30,2012-11-06 17:56:00
12:56 PM,78.1,51.1,39,30.11,10.0,NE,11.5,-,N/A,,Clear,50,2012-11-06 18:56:00
1:56 PM,78.1,46.0,32,30.08,10.0,ENE,12.7,-,N/A,,Partly Cloudy,70,2012-11-06 19:56:00
2:56 PM,77.0,52.0,42,30.08,10.0,ENE,9.2,-,N/A,,Clear,70,2012-11-06 20:56:00
3:56 PM,75.9,50.0,40,30.08,10.0,East,8.1,-,N/A,,Clear,100,2012-11-06 21:56:00
4:56 PM,73.9,51.1,45,30.08,10.0,East,6.9,-,N/A,,Clear,100,2012-11-06 22:56:00
5:56 PM,68.0,52.0,56,30.09,10.0,ESE,5.8,-,N/A,,Clear,110,2012-11-06 23:56:00
6:56 PM,64.9,52.0,63,30.11,10.0,SE,5.8,-,N/A,,Clear,130,2012-11-07 00:56:00
7:56 PM,66.0,51.1,59,30.12,10.0,ESE,6.9,-,N/A,,Clear,120,2012-11-07 01:56:00
8:56 PM,64.9,53.1,65,30.12,10.0,SE,6.9,-,N/A,,Clear,130,2012-11-07 02:56:00
9:56 PM,66.9,54.0,63,30.12,10.0,SSE,5.8,-,N/A,,Clear,150,2012-11-07 03:56:00
10:56 PM,66.9,55.0,66,30.12,10.0,SE,3.5,-,N/A,,Clear,140,2012-11-07 04:56:00
11:56 PM,64.9,55.9,73,30.12,10.0,SE,4.6,-,N/A,,Clear,130,2012-11-07 05:56:00